SCP
0 0 0 0 1 1 2 1 1 1 2 4 6 7 8 9 9 9 8 8 10 11 9 6 6 6 6 6 6 6 6 6 6 6 5 3 3 3 3 3 3 3 3 2
0 0 0 0 1 1 2 1 1 2 2 4 6 8 9 10 11 11 10 10 10 11 8 6 6 5 5 5 6 6 7 7 6 7 6 5 4 3 3 3 3 3 2 2
0 0 0 0 1 2 2 1 1 2 2 4 7 9 10 11 12 12 12 10 9 7 6 5 5 5 5 5 6 6 7 7 6 7 7 6 5 4 3 3 3 3 2 2
0 0 0 1 1 2 2 2 2 3 3 5 7 10 11 12 11 11 10 9 6 5 4 4 5 5 5 5 5 6 6 6 6 6 7 7 6 4 4 4 4 3 2 2
0 0 0 1 2 2 2 2 3 4 5 6 8 11 12 10 9 8 7 5 5 4 3 3 4 18 27 19 5 5 4 4 5 7 7 7 6 5 4 4 4 4 3 2
0 0 0 1 2 2 1 2 4 6 6 6 7 9 10 9 7 6 5 4 4 3 3 3 3 27 50 27 4 4 3 4 6 7 8 8 7 6 6 5 5 4 3 3
0 0 0 1 2 2 2 2 4 5 5 6 6 7 8 8 8 6 5 5 4 4 3 3 3 17 27 17 3 3 3 4 6 8 9 9 8 8 7 6 5 5 4 4
0 0 0 1 1 1 2 2 4 5 5 7 8 8 8 8 8 7 6 5 4 4 3 3 4 4 4 3 3 2 3 4 6 7 8 9 9 9 8 7 6 5 5 4
0 0 1 1 1 1 2 3 4 5 6 8 9 9 9 8 7 6 6 5 5 4 4 4 5 5 5 4 3 2 3 4 5 6 8 10 11 10 8 8 7 6 5 4
1 1 1 1 1 2 2 4 5 5 6 7 9 9 8 7 5 5 5 5 5 5 5 5 5 5 6 5 4 3 4 5 6 7 8 9 9 8 7 7 7 7 6 4
1 2 2 1 2 2 3 5 5 5 5 6 8 9 7 6 4 4 4 4 4 4 4 5 5 5 6 5 4 4 5 6 8 8 7 7 6 4 4 4 4 5 5 3
1 2 2 2 2 3 4 5 5 5 5 6 8 9 7 5 4 3 3 3 4 4 4 4 4 5 5 5 4 4 5 7 9 8 7 5 3 2 1 1 1 2 2 2
1 2 3 3 3 5 5 5 6 7 8 9 10 9 7 5 3 3 2 2 3 3 3 3 4 4 4 4 4 4 5 6 8 8 6 5 3 2 1 0 0 0 0 1
1 2 3 4 6 7 7 8 9 10 11 11 11 9 6 4 2 2 2 2 2 3 3 3 3 3 3 3 3 3 4 5 6 7 6 4 3 2 1 0 0 0 0 0
3 3 5 7 9 9 9 9 9 10 10 10 9 7 4 2 1 1 2 3 3 3 2 2 2 2 2 3 3 2 3 4 5 5 4 3 2 2 1 0 0 0 0 0
5 6 9 11 11 10 9 8 8 7 7 6 5 4 2 1 1 1 3 4 4 3 2 2 2 2 2 3 2 2 3 4 4 4 2 2 2 1 1 0 0 0 0 0
5 7 9 11 10 8 7 6 6 5 5 4 3 2 1 1 1 2 3 4 4 3 2 1 1 2 3 3 3 2 3 4 3 3 2 2 1 1 1 1 0 0 0 0
3 4 5 7 7 7 6 5 5 4 4 3 2 1 1 1 1 2 3 4 3 2 2 1 1 2 3 3 2 2 3 4 4 3 2 1 1 1 1 1 0 0 0 0
1 2 3 4 5 5 5 4 4 3 2 2 2 1 1 1 1 1 2 3 3 2 1 1 1 2 2 2 2 3 4 4 4 3 2 1 1 1 1 1 0 0 0 0
1 1 2 3 4 4 3 3 2 1 1 1 1 1 0 0 0 1 1 2 2 2 1 1 1 1 2 2 2 3 4 4 3 2 2 2 1 1 1 1 0 0 0 0
1 1 1 2 3 3 3 1 1 1 1 1 1 1 0 0 0 0 1 1 1 1 0 0 0 1 1 1 2 3 3 3 3 2 2 2 2 1 1 1 0 0 0 0
0 1 1 1 2 2 2 1 1 1 0 0 1 1 1 0 0 0 0 0 0 0 0 0 0 0 1 1 2 2 2 2 2 2 2 2 2 2 1 1 0 0 0 0
0 0 0 0 1 1 1 1 0 0 0 0 0 1 1 1 1 0 0 0 0 0 0 0 0 0 1 1 1 1 2 2 1 1 1 1 1 1 0 0 0 0 0 0
0 0 0 0 0 0 0 0 0 0 0 0 0 0 1 1 1 0 0 0 0 0 0 0 0 0 0 1 1 1 1 1 1 0 0 0 0 0 0 0 0 0 0 0
0 0 0 0 0 0 0 0 0 0 0 0 0 0 0 1 0 0 0 0 0 0 0 0 0 0 0 0 0 0 0 0 0 0 0 0 0 0 0 0 0 0 0 0
0 0 0 0 0 0 0 0 0 0 0 0 0 0 0 0 0 0 0 0 0 0 0 0 0 0 0 0 0 0 0 0 0 0 0 0 0 0 0 0 0 0 0 0
0 0 0 0 0 0 0 0 0 0 0 0 0 0 0 0 0 0 0 0 0 0 0 0 0 0 0 0 0 0 0 0 0 0 0 0 0 0 0 0 0 0 0 0
Wind_Speed
3 2 1 1 3 2 4 7 7 6 6 5 5 5 4 5 7 8 6 6 6 5 4 3 3 3 4 5 5 6 7 6 6 5 5 4 4 4 3 3 3 3 2 2
2 3 2 3 3 2 3 4 5 5 3 4 2 4 4 5 7 7 6 6 5 5 5 4 4 3 4 4 4 5 6 5 4 4 4 4 4 3 3 3 2 2 2 2
1 3 4 3 3 2 2 2 6 5 5 3 4 4 4 5 6 6 6 5 6 5 4 3 3 4 4 3 3 4 4 4 3 4 4 4 4 4 3 3 3 3 2 3
2 2 3 8 3 2 3 0 2 5 5 7 7 5 3 3 6 6 5 4 4 4 3 3 3 3 3 3 4 4 4 4 4 4 4 4 4 4 3 3 3 3 2 2
3 2 4 5 3 0 3 1 1 5 6 6 7 8 5 3 3 5 5 5 4 4 5 4 4 3 4 3 3 3 3 3 3 4 4 4 4 3 3 3 3 3 3 3
4 3 5 6 5 1 6 1 2 3 6 6 6 5 3 1 4 5 4 4 5 5 6 6 4 4 5 4 3 3 2 2 3 3 4 4 4 4 3 4 4 4 4 3
4 3 6 6 6 3 4 5 2 3 4 5 4 5 5 5 5 5 5 5 6 6 6 4 3 5 5 4 3 2 2 3 3 3 4 4 4 4 5 5 5 5 5 4
5 4 7 5 3 2 4 3 3 4 4 5 6 7 6 6 7 7 6 6 6 6 5 3 3 5 5 3 2 2 3 3 3 3 3 4 5 5 5 6 6 5 5 4
6 7 5 1 2 1 3 4 3 4 5 7 7 7 7 6 5 6 6 5 4 5 5 3 3 4 4 2 2 3 4 4 4 4 4 4 5 5 4 4 5 4 4 4
1 1 1 1 2 3 3 4 4 5 6 7 7 6 6 5 5 5 4 4 4 5 4 3 2 3 2 2 3 4 5 4 4 6 6 5 4 4 4 3 4 4 4 4
0 1 2 3 2 2 3 4 6 6 5 6 7 6 5 4 3 4 4 4 4 4 4 2 2 2 2 2 4 5 5 5 5 5 6 6 6 5 4 3 2 4 4 4
4 4 3 3 2 2 3 3 4 6 5 4 5 5 5 4 3 4 4 4 4 4 4 3 3 3 2 2 4 5 5 5 4 4 5 5 6 6 11 7 8 7 6 5
5 3 3 3 1 2 3 3 4 5 6 5 4 5 4 4 3 3 4 4 4 4 3 3 3 3 2 2 4 5 5 5 4 5 5 4 4 5 5 7 10 10 8 7
3 3 2 1 2 2 3 4 4 5 5 5 4 5 4 4 3 3 3 4 4 4 4 3 3 2 2 2 4 5 5 5 5 5 5 4 4 4 4 5 5 4 6 7
1 2 3 2 2 2 3 5 5 4 4 4 4 5 5 4 3 3 2 3 4 4 3 3 3 2 1 3 4 4 5 4 5 5 5 5 5 4 4 4 4 4 4 4
1 2 3 3 3 3 4 4 4 4 4 4 5 4 4 4 3 2 3 3 4 3 3 3 2 2 2 3 4 3 4 7 6 5 5 4 4 4 4 4 4 4 4 3
2 1 2 2 3 3 3 4 4 4 4 5 5 6 5 5 4 3 3 2 3 2 2 2 2 2 3 4 4 3 4 5 7 5 4 4 4 4 4 4 4 3 3 3
3 4 4 4 4 4 4 4 4 4 4 5 6 6 6 6 5 4 3 3 3 2 1 1 2 2 3 4 4 4 4 4 4 4 4 4 4 4 4 4 5 5 4 4
3 2 3 3 3 4 4 4 4 4 4 4 6 6 6 6 5 4 3 4 4 3 2 2 3 3 3 4 4 4 5 5 4 4 4 6 5 4 4 4 4 4 5 5
2 2 2 3 3 4 4 4 5 5 4 5 5 6 5 4 4 4 4 3 3 3 3 2 3 3 3 4 5 4 5 5 5 5 4 5 5 5 5 5 5 5 5 5
2 2 2 2 2 2 4 5 5 5 4 5 6 6 5 4 4 4 4 3 2 3 3 4 2 2 2 3 5 4 4 4 5 5 5 5 5 5 5 5 5 5 5 5
1 3 3 3 3 2 2 4 5 5 5 4 4 5 5 4 4 4 3 3 3 4 3 2 2 4 4 4 3 4 5 5 4 4 4 5 5 5 5 5 5 5 5 5
1 2 3 3 3 3 3 3 4 5 5 5 5 5 5 4 4 5 3 2 3 5 4 3 5 7 6 3 4 4 5 5 5 4 4 5 5 5 5 5 5 5 5 5
1 2 2 2 3 4 4 3 3 3 4 4 4 5 5 4 3 2 3 4 5 5 3 5 8 7 5 3 4 4 4 4 5 5 5 5 5 5 5 5 5 5 5 5
1 2 3 3 3 3 3 4 4 4 4 3 4 4 3 4 4 3 4 5 6 6 4 5 7 6 4 4 4 4 5 5 5 5 5 5 5 5 5 5 5 5 5 5
1 2 2 2 2 2 3 3 3 3 4 4 3 3 3 3 4 4 4 5 6 6 5 4 5 5 4 4 5 5 5 6 5 5 5 5 5 5 5 5 6 5 5 5
2 2 2 2 2 2 3 4 4 4 4 4 4 4 4 4 4 4 5 4 4 4 4 4 4 4 4 5 5 5 5 5 5 5 5 5 4 4 4 5 4 4 4 4
Wind_Direction
182 192 129 234 265 225 166 171 172 203 193 214 192 158 136 115 115 115 113 109 111 114 116 116 113 125 138 148 153 155 156 165 178 183 177 169 167 168 164 160 171 173 169 156
7 8 20 333 301 234 190 166 159 153 196 227 159 117 105 110 120 125 124 118 111 106 109 113 117 118 120 134 146 145 154 165 168 165 163 161 157 149 143 149 164 151 145 138
313 331 39 303 263 204 207 188 155 178 203 165 118 120 142 150 138 135 130 124 118 117 123 127 137 135 132 143 137 134 141 150 156 156 158 159 151 142 145 154 152 136 136 132
106 61 225 243 251 156 149 178 146 143 153 152 146 133 111 133 136 135 135 130 122 116 113 108 108 106 120 127 127 130 136 149 153 149 158 154 144 145 152 145 143 144 132 133
113 157 273 291 304 37 127 13 40 130 132 132 122 84 45 26 104 133 142 135 128 123 114 99 93 100 103 102 111 113 123 138 148 151 150 144 147 149 147 134 130 124 116 113
124 153 223 255 288 291 101 31 333 113 138 140 121 120 201 179 104 101 104 106 108 102 95 87 79 91 92 89 95 108 128 135 136 144 147 148 154 144 127 122 122 115 103 97
149 194 258 265 298 36 123 214 238 114 122 130 141 168 169 132 105 102 101 99 99 94 91 89 85 92 90 85 90 114 112 113 111 127 135 138 130 124 121 117 112 106 100 86
153 184 247 299 9 110 199 194 144 120 114 108 113 117 116 108 103 100 95 88 92 93 86 80 85 96 92 79 69 85 95 97 100 109 120 121 119 115 115 119 113 108 103 88
181 203 229 263 128 184 148 124 122 120 114 111 108 113 110 102 102 101 102 94 90 100 93 75 76 94 101 94 74 89 92 95 90 80 75 90 107 115 113 113 116 114 108 103
85 272 280 35 61 60 95 111 115 118 122 117 114 115 113 115 114 108 101 95 92 97 90 68 60 80 102 100 97 103 101 98 95 92 81 72 73 83 102 110 118 120 121 122
316 270 9 14 41 66 63 82 97 98 103 115 120 122 117 117 119 116 110 107 102 104 103 87 74 70 82 97 106 108 105 104 100 98 100 87 72 57 73 70 122 138 139 138
214 225 182 233 243 104 96 98 116 113 99 101 120 127 128 126 128 121 118 115 106 100 100 91 80 70 71 90 106 114 113 110 107 106 104 103 100 77 51 62 69 81 107 124
210 214 178 201 176 125 133 143 132 127 129 125 123 125 126 129 123 118 121 118 118 115 113 109 95 78 69 82 98 111 123 125 118 115 114 114 112 113 100 61 56 61 74 95
198 148 129 164 176 180 149 140 128 125 131 136 133 126 124 119 124 130 134 138 128 118 114 113 105 92 83 95 101 106 113 115 119 122 122 120 117 113 115 120 105 68 52 72
221 160 172 170 153 141 138 130 124 131 132 137 136 133 136 135 135 147 148 136 119 108 111 118 115 113 105 108 112 114 118 122 120 119 118 120 120 115 114 115 115 111 92 62
162 123 131 132 137 139 139 144 146 161 157 150 142 145 148 144 134 140 135 130 127 131 141 139 145 165 146 132 126 120 122 124 123 125 126 126 126 123 123 122 120 120 118 114
144 163 173 161 167 168 179 179 171 171 166 158 156 150 141 134 132 143 137 130 128 135 144 152 167 167 151 139 131 126 128 130 126 126 131 133 131 130 127 124 125 127 126 122
185 196 195 188 185 174 172 162 154 156 160 153 147 142 145 150 156 158 157 136 113 106 116 158 161 142 132 130 128 129 130 132 135 137 134 132 132 131 128 128 131 128 118 108
175 200 214 209 196 173 169 168 163 155 149 140 138 144 153 155 154 159 148 138 146 164 199 174 147 134 130 131 130 130 131 131 130 131 135 137 135 134 131 131 130 129 125 118
184 207 207 208 182 164 166 165 154 149 152 143 137 139 145 153 155 160 152 166 196 199 183 156 143 143 142 138 133 131 134 135 138 138 137 138 140 140 135 133 131 127 125 122
179 179 171 161 144 146 157 158 154 157 156 150 152 159 163 167 168 167 159 174 211 181 157 148 142 145 141 137 128 130 136 139 139 140 139 138 138 136 134 132 132 131 129 125
177 153 153 142 123 121 143 151 153 155 153 155 159 162 158 160 156 155 166 178 181 160 149 145 144 134 128 122 121 126 129 130 129 128 132 136 135 134 133 132 133 131 128 129
133 133 136 136 136 136 127 137 149 154 158 162 165 164 161 162 157 152 166 186 161 149 141 143 140 131 125 121 123 122 124 126 126 125 128 131 134 135 136 136 134 133 133 133
119 129 129 126 122 127 135 142 133 130 135 145 151 151 145 138 130 146 152 145 139 132 129 140 137 128 118 111 114 114 116 118 121 122 122 123 126 128 130 131 130 131 131 131
94 121 125 124 127 141 145 134 118 116 114 114 115 123 133 140 145 147 142 143 140 130 121 126 128 123 113 108 114 116 117 118 120 123 121 123 125 124 125 128 132 134 135 135
92 107 115 129 145 149 143 134 132 132 125 120 114 111 113 115 120 122 123 128 129 127 125 122 116 111 108 108 114 117 118 117 116 116 121 124 125 127 130 133 135 137 138 140
84 85 84 79 80 110 123 128 129 131 133 130 122 116 116 116 115 115 114 114 118 119 116 116 116 115 112 110 110 113 116 115 114 114 115 117 121 125 132 133 133 133 134 138